TimeEDT,TemperatureF,Dew PointF,Humidity,Sea Level PressureIn,VisibilityMPH,Wind Direction,Wind SpeedMPH,Gust SpeedMPH,PrecipitationIn,Events,Conditions,WindDirDegrees,DateUTC
12:56 AM,43.9,34.9,71,29.97,10.0,South,8.1,-,N/A,,Clear,190,2012-10-10 04:56:00
1:56 AM,45.0,36.9,73,29.96,10.0,SSW,8.1,-,N/A,,Clear,200,2012-10-10 05:56:00
2:56 AM,45.0,38.8,79,29.95,10.0,SSW,9.2,-,N/A,,Clear,200,2012-10-10 06:56:00
3:56 AM,45.9,38.8,76,29.93,10.0,SW,10.4,-,N/A,,Scattered Clouds,220,2012-10-10 07:56:00
4:56 AM,45.9,38.8,76,29.92,10.0,SW,11.5,-,N/A,,Scattered Clouds,220,2012-10-10 08:56:00
5:56 AM,46.9,39.9,77,29.92,10.0,SW,9.2,-,N/A,,Mostly Cloudy,230,2012-10-10 09:56:00
6:56 AM,45.9,39.9,80,29.95,10.0,WSW,10.4,-,N/A,,Scattered Clouds,240,2012-10-10 10:56:00
7:21 AM,46.4,39.2,76,29.95,10.0,WSW,12.7,-,N/A,,Overcast,250,2012-10-10 11:21:00
7:56 AM,45.9,41.0,83,29.98,5.0,West,17.3,-,N/A,,Haze,280,2012-10-10 11:56:00
8:56 AM,43.9,39.9,86,30.01,10.0,West,10.4,-,N/A,,Mostly Cloudy,280,2012-10-10 12:56:00
9:20 AM,44.6,41.0,87,30.00,10.0,WNW,11.5,-,N/A,,Mostly Cloudy,290,2012-10-10 13:20:00
9:33 AM,44.6,39.2,81,30.01,10.0,WNW,13.8,-,N/A,,Overcast,300,2012-10-10 13:33:00
9:56 AM,45.0,37.9,76,30.03,10.0,WNW,16.1,19.6,N/A,,Overcast,300,2012-10-10 13:56:00
10:56 AM,45.9,36.0,68,30.06,10.0,WNW,17.3,-,N/A,,Mostly Cloudy,300,2012-10-10 14:56:00
11:22 AM,48.2,35.6,62,30.05,10.0,West,16.1,23.0,N/A,,Scattered Clouds,280,2012-10-10 15:22:00
11:56 AM,48.9,32.9,54,30.08,10.0,WNW,15.0,-,N/A,,Partly Cloudy,300,2012-10-10 15:56:00
12:56 PM,52.0,31.1,45,30.09,10.0,WNW,15.0,24.2,N/A,,Scattered Clouds,290,2012-10-10 16:56:00
1:56 PM,54.0,31.1,42,30.06,10.0,West,18.4,25.3,N/A,,Mostly Cloudy,270,2012-10-10 17:56:00
2:56 PM,50.9,30.0,45,30.08,10.0,WNW,19.6,26.5,N/A,,Partly Cloudy,290,2012-10-10 18:56:00
3:56 PM,50.9,31.1,47,30.09,10.0,WNW,20.7,27.6,N/A,,Mostly Cloudy,290,2012-10-10 19:56:00
4:56 PM,50.0,29.1,45,30.12,10.0,WNW,18.4,27.6,N/A,,Partly Cloudy,300,2012-10-10 20:56:00
5:56 PM,47.8,28.0,46,30.15,10.0,WNW,17.3,24.2,N/A,,Clear,290,2012-10-10 21:56:00
6:56 PM,45.9,26.1,46,30.16,10.0,WNW,11.5,-,N/A,,Clear,290,2012-10-10 22:56:00
7:56 PM,41.9,25.2,52,30.20,10.0,WNW,8.1,-,N/A,,Clear,300,2012-10-10 23:56:00
8:56 PM,41.0,25.2,53,30.22,10.0,West,4.6,-,N/A,,Clear,270,2012-10-11 00:56:00
9:56 PM,36.0,27.1,70,30.25,10.0,SW,4.6,-,N/A,,Clear,220,2012-10-11 01:56:00
10:56 PM,34.0,27.1,76,30.25,10.0,WSW,4.6,-,N/A,,Clear,250,2012-10-11 02:56:00
11:56 PM,32.0,27.1,82,30.27,10.0,WSW,5.8,-,N/A,,Clear,240,2012-10-11 03:56:00